Regional Weather Roundup
Issued by NWS

Home | Current Version | Previous Version | Text Only | Print | Product List | Glossary Off
Versions: 1 2 3 4 5 6 7 8 9 10 11 12 13 14 15 16 17 18 19 20 21 22 23 24 25 26 27 28 29 30 31 32 33 34 35 36 37 38 39 40 41 42 43 44 45 46 47 48 49 50

000
ASUS43 KLOT 071403
RWRIL

ILLINOIS REGIONAL WEATHER ROUNDUP
NATIONAL WEATHER SERVICE CHICAGO/ROMEOVILLE IL
800 AM CST WED DEC 07 2016

NOTE: "FAIR" INDICATES FEW OR NO CLOUDS BELOW 12,000 FEET WITH NO
SIGNIFICANT WEATHER AND/OR OBSTRUCTIONS TO VISIBILITY.

* THESE STATIONS ARE NOT UNDER NWS QUALITY CONTROL. THEY ALSO MAY NOT
  REPORT WEATHER SUCH AS PRECIPITATION OR FOG.

ILZ001-002-007-009-015-016-024-071500-
NORTHWEST ILLINOIS

CITY           SKY/WX    TMP DP  RH WIND       PRES   REMARKS
MOLINE         CLOUDY    23  15  71 W12       30.14R WCI  12
STERLING*      PTCLDY    21  16  81 W13       30.11S WCI   9
$$

ILZ003-004-008-010-011-017-018-071500-
NORTH CENTRAL ILLINOIS

CITY           SKY/WX    TMP DP  RH WIND       PRES   REMARKS
ROCKFORD       CLOUDY    21  14  74 W7        30.09S WCI  12
FREEPORT*      CLOUDY    19  14  81 W6        30.10R WCI  11
ROCHELLE*      CLOUDY    21  16  81 W13       30.10R WCI   9
$$

ILZ005-006-012>014-019>023-071500-
NORTHEAST ILLINOIS

CITY           SKY/WX    TMP DP  RH WIND       PRES   REMARKS
CHICAGO-OHARE  CLOUDY    24  16  71 W15G23    30.07R WCI  11
CHICAGO-MIDWAY CLOUDY    26  16  65 W14       30.07S WCI  14
AURORA         MOCLDY    24  17  74 W15       30.09R WCI  11
LANSING*       CLOUDY    26  21  79 W10G16    30.08S WCI  17
WAUKEGAN       CLOUDY    23  16  74 W10G18    30.04R WCI  12
DUPAGE AIRPORT PTCLDY    23  15  71 W14       30.07R WCI  11
KANKAKEE*      CLOUDY    28  21  74 W13       30.10S WCI  17
WHEELING       PTCLDY    24  15  68 W12G21    30.08R WCI  13
MORRIS*        CLOUDY    26  20  79 W9G20     30.09S WCI  16
NORTHERLY ISL    N/A     27  18  69 W9          N/A  WCI  18
$$

LMZ740>746-071500-
SOUTHERN LAKE MICHIGAN

STATION/POSITION SKY/WX   TEMP    WIND        PRES    VSBY  WAVE
                          AIR SEA DIR/SP/G                  HT/PER
                          (F)     (DEG/KT/KT) (MB)    (MI)  (FT/S)
HARRISON CRIB              27     270/ 18/ 20   N/A
BURNHAM HARBOR             27     290/  6/ 15   N/A
CALUMET HARBOR             26     240/  7/ 13 1017.8R
BURNS HARBOR               29     250/ 14/ 17 1018.6S
MICHIGAN CITY              30     220/ 18/ 23   N/A
$$

ILZ025>027-034>036-040-047-049-050-058-095>099-071500-
WEST-CENTRAL ILLINOIS

CITY           SKY/WX    TMP DP  RH WIND       PRES   REMARKS
QUINCY         CLOUDY    28  17  63 NW10      30.19R WCI  19
GALESBURG*     PTCLDY    24  19  79 W10       30.14R WCI  14
MACOMB*        CLEAR     27  19  74 W10       30.20R WCI  17
JACKSONVILLE*  CLOUDY    29  19  65 W6        30.20R WCI  23
PITTSFIELD*    CLOUDY    30  19  63 CALM      30.20R
$$

ILZ028>032-037-038-041>044-048-051>054-059>061-071500-
CENTRAL ILLINOIS

CITY           SKY/WX    TMP DP  RH WIND       PRES   REMARKS
PONTIAC        CLOUDY    28  23  81 W13       30.11S WCI  17
BLOOMINGTON    CLOUDY    27  18  69 W9        30.13R WCI  18
DECATUR        CLOUDY    29  18  63 W7        30.17R WCI  22
PEORIA         CLOUDY    27  17  66 W7        30.15R WCI  19
LACON*         PTCLDY    26  18  71 W7        30.13R WCI  18
LINCOLN*       CLOUDY    29  21  71 W3        30.17R
SPRINGFIELD    CLOUDY    30  21  69 SW3       30.18R
TAYLORVILLE    CLOUDY    28  23  79 SW5       30.19R WCI  23
$$

ILZ033-039-045-046-055>057-062-063-071500-
EAST-CENTRAL ILLINOIS

CITY           SKY/WX    TMP DP  RH WIND       PRES   REMARKS
CHAMPAIGN      CLOUDY    29  22  75 W7        30.14R WCI  22
RANTOUL*       CLOUDY    30  24  78 SW7       30.13R WCI  23
MATTOON        MOCLDY    29  18  63 SW5       30.16R WCI  24
PARIS*         PTCLDY    29  24  82 SW5       30.17R WCI  24
$$

ILZ079-100>102-071500-
SOUTHWEST ILLINOIS

CITY           SKY/WX    TMP DP  RH WIND       PRES   REMARKS
ALTON          MOCLDY    28  21  74 CALM      30.21R
BELLEVILLE     PTCLDY    31  25  77 SW3       30.21R
CAHOKIA*       CLOUDY    32  19  58 SW3       30.22R
SPARTA*        CLEAR     27  24  88 CALM      30.24R
$$

ILZ064>066-069>071-074>076-080>082-084>086-088>090-092>094-071500-
SOUTH-CENTRAL ILLINOIS

CITY           SKY/WX    TMP DP  RH WIND       PRES   REMARKS
CARBONDALE     CLEAR     27  26  96 CALM      30.23R
CAIRO*         PTCLDY    32  24  72 N3        30.23S
EFFINGHAM*     MOCLDY    29  25  83 S5        30.21R WCI  24
MARION         CLEAR     28  28 100 CALM      30.24R
CENTRALIA*     PTCLDY    30  27  87 CALM      30.22R
SALEM*         CLOUDY    30  25  79 S5        30.21R WCI  26
METROPOLIS*    PTCLDY    31  26  82 CALM      30.24R
$$

ILZ067-068-072-073-078-083-087-091-071500-
SOUTHEAST ILLINOIS

CITY           SKY/WX    TMP DP  RH WIND       PRES   REMARKS
LAWRENCEVILLE  CLEAR     29  25  85 S5        30.21S WCI  24
FLORA*         CLEAR     28  25  87 SW5       30.22R WCI  23
FAIRFIELD*     PTCLDY    28  26  92 CALM      30.22R
HARRISBURG*    CLEAR     30  28  93 CALM      30.24S
ROBINSON*      CLEAR     27  24  86 S5        30.22R WCI  22
CARMI*         CLOUDY    31  29  92 CALM      30.23R
$$

ABBREVIATIONS USED IN REMARKS
   TC - TEMPERATURE IN CELSIUS
  WCI - WIND CHILL INDEX
   HX - HEAT INDEX
  VSB - VISIBILITY
$$




USA.gov is the U.S. government's official web portal to all federal, state and local government web resources and services.